Regional Weather Roundup
Issued by NWS

Home | Current Version | Previous Version | Graphics & Text | Print | Product List | Glossary On
Versions: 1 2 3 4 5 6 7 8 9 10 11 12 13 14 15 16 17 18 19 20 21 22 23 24 25 26 27 28 29 30 31 32 33 34 35 36 37 38 39 40 41 42 43 44 45 46 47 48 49 50
000
ASUS43 KDMX 010707
RWRIA

WEATHER ROUNDUP FOR IOWA
NATIONAL WEATHER SERVICE DES MOINES IA
100 AM CST SUN MAR 01 2015

NOTE: "FAIR" INDICATES FEW OR NO CLOUDS BELOW 12,000 FEET WITH NO
SIGNIFICANT WEATHER AND/OR OBSTRUCTIONS TO VISIBILITY.

* - THESE STATIONS ARE NOT NWS STATIONS...THUS NOT UNDER NWS
QUALITY CONTROL.  THEY ALSO DO NOT REPORT WEATHER SUCH
AS PRECIPITATION OR FOG.

IAZ001>003-012>014-020>022-031>034-043>046-010800-
   NORTHWEST IOWA

CITY           SKY/WX    TMP DP  RH WIND       PRES   REMARKS
CARROLL *      MOCLDY    14  12  92 S8        30.33R WCI   3
CHEROKEE *     CLEAR     14  12  92 S8        30.31R WCI   3
DENISON *      PTCLDY    16  16 100 SW5       30.31R WCI   9
LE MARS *      CLEAR     14  12  92 S8        30.31R WCI   3
ORANGE CITY *  CLEAR     14  10  85 S9        30.28R WCI   2
SHELDON *      CLEAR     12  12 100 S10       30.26R WCI  -1
SIOUX CITY     CLEAR     18  13  80 S8        30.32R WCI   8
SPENCER        CLEAR     10   6  84 S7        30.28S WCI  -1
STORM LAKE *   CLEAR     10   9  92 S9        30.30R WCI  -2
$$

IAZ055>058-069>071-079>083-090>094-010800-
   SOUTHWEST IOWA

CITY           SKY/WX    TMP DP  RH WIND       PRES   REMARKS
ATLANTIC *     CLOUDY    21  18  86 SW8       30.35R WCI  12
AUDUBON *      FLURRIES  19  16  86 S6        30.33S WCI  11
CLARINDA *     CLOUDY    21  19  93 CALM      30.39S
COUNCIL BLFS * CLOUDY    21  18  86 SW9       30.33S WCI  11
CRESTON *      CLOUDY    21  18  86 SW7       30.35S WCI  13
HARLAN  *      CLOUDY    21  21 100 SW9       30.37R WCI  11
LAMONI         CLOUDY    19  17  92 CALM      30.35F
RED OAK *      CLOUDY    21  18  86 S5        30.36S WCI  15
SHENANDOAH *   CLOUDY    23  18  80 SW7       30.38R WCI  15
$$

IAZ047>049-059>061-072>074-084-010800-
   CENTRAL IOWA

CITY           SKY/WX    TMP DP  RH WIND       PRES   REMARKS
AMES           CLOUDY    18  14  84 S9        30.36S WCI   7
ANKENY *       CLOUDY    19  16  86 S6        30.38R WCI  11
CHARITON *     CLOUDY    18  16  93 CALM      30.38R
DES MOINES     FLURRIES  20  16  84 S7        30.37S WCI  11
GRINNELL*      LGT SNOW  12  10  92 SE3       30.38S
KNOXVILLE *    CLOUDY    18  14  86 SE6       30.37S WCI   9
MARSHALLTOWN   CLOUDY    15  13  91 S10       30.36F WCI   2
PELLA *        PTCLDY    18  16  93 S7        30.41R WCI   8
PERRY *          N/A     21  19  93 S9        30.35S WCI  11
$$

IAZ004>006-015-016-023>025-035-036-010800-
   NORTH CENTRAL IOWA

CITY           SKY/WX    TMP DP  RH WIND       PRES   REMARKS
ALGONA *       CLEAR     12  12 100 S10       30.31S WCI  -1
CLARION *      CLOUDY    16  16 100 S10       30.32S WCI   3
ESTHERVILLE    CLEAR     11   8  88 S12       30.27F WCI  -3
FORT DODGE *   CLEAR     16  12  86 S7        30.33S WCI   6
MASON CITY     PTCLDY     8   6  92 S7        30.33F WCI  -3
FOREST CITY *  CLEAR      9   5  85 SE7       30.30F WCI  -3
IOWA FALLS *   CLOUDY    16  12  86 SE9       30.35S WCI   4
$$

IAZ007>011-017>019-026>030-037>042-050>054-066-010800-
   NORTHEAST IOWA

CITY           SKY/WX    TMP DP  RH WIND       PRES   REMARKS
CEDAR RAPIDS   CLOUDY     9   7  92 E3        30.39F FOG
CHARLES CITY * CLOUDY    12   9  85 S8        30.35F WCI   1
CLINTON *      MOCLDY     5   3  92 E3        30.44S
DECORAH *      CLOUDY     7   3  85 SE7       30.35F WCI  -5
DUBUQUE        CLOUDY     9   7  92 SW3       30.39R FOG
MONTICELLO *   CLOUDY     9   7  92 CALM      30.40F
OELWEIN *      CLOUDY     9   5  85 SE9       30.37F FOG     WCI  -5
WATERLOO       LGT SNOW  12  10  92 S5        30.37F FOG     WCI   4
$$

IAZ064-065-067-068-078-010800-
   EAST CENTRAL IOWA

CITY           SKY/WX    TMP DP  RH WIND       PRES   REMARKS
DAVENPORT      MOCLDY     9   5  84 CALM      30.41F FOG
IOWA CITY      CLOUDY     6   5  95 CALM      30.43S FOG
MT. PLEASANT * FOG        9   5  85 CALM      30.41S VSB 1/4
MUSCATINE *    FOG        3   0  85 CALM      30.43F VSB 0
QUAD CITIES    MOCLDY     4   0  83 CALM      30.42F FOG
$$

IAZ062-063-075>077-085>089-095>099-010800-
   SOUTHEAST IOWA

CITY           SKY/WX    TMP DP  RH WIND       PRES   REMARKS
BURLINGTON     CLOUDY    19  17  92 CALM      30.40S
FAIRFIELD *    HAZE       5   0  78 CALM      30.40S VSB 0
FORT MADISON * CLOUDY    19  18  93 CALM      30.41R
KEOKUK *       CLOUDY    21  19  93 CALM      30.40R
OSKALOOSA *    LGT SNOW  10   9  92 CALM      30.41R
CENTERVILLE *  CLEAR     14  12  92 CALM      30.39R
OTTUMWA        FOG       10   7  87 CALM      30.39S VSB 1
WASHINGTON *   FOG        9  10 100 CALM      30.41S VSB 0
$$

ABBREVIATIONS USED IN REMARKS
   TC - TEMPERATURES IN CELSIUS
  WCI - WIND CHILL INDEX
   HX - HEAT INDEX
  VSB - VISIBILITY
$$



USA.gov is the U.S. government's official web portal to all federal, state and local government web resources and services.